I2476 LIBN-LICR

Flight info

Callsign I2476
Flight time N/A
Altitude 15000
Route GEMV5B GEMVI DCT CDC DCT GIMEL GIME1A LICR/33
Aircraft A320/M-S/7123

Departure

Time N/A
Airport Lecce Galatina Air Base / Galatina Fortunato Cesari Airport (LIBN)

Arrival

Time 2026-04-25 15:33
Airport Reggio Calabria Airport (LICR)
Time Latitude Longitude Altitude Speed Heading
2026-04-25 14:48 40.16690 17.90090 0 ft 259 kts 229°
2026-04-25 14:48 40.15517 17.88537 0 ft 262 kts 229°
2026-04-25 14:49 40.14260 17.86843 0 ft 268 kts 231°
2026-04-25 14:49 40.13049 17.84998 0 ft 277 kts 233°
2026-04-25 14:49 40.11545 17.83456 0 ft 295 kts 205°
2026-04-25 14:49 40.09449 17.83197 0 ft 317 kts 175°
2026-04-25 14:50 40.07285 17.83947 0 ft 329 kts 165°
2026-04-25 14:50 40.05156 17.85095 0 ft 339 kts 159°
2026-04-25 14:50 40.03103 17.86469 0 ft 346 kts 155°
2026-04-25 14:50 40.01003 17.88078 0 ft 353 kts 152°
2026-04-25 14:51 39.98939 17.89808 0 ft 359 kts 150°
2026-04-25 14:51 39.96869 17.91654 0 ft 363 kts 149°
2026-04-25 14:51 39.94780 17.93478 0 ft 360 kts 158°
2026-04-25 14:51 39.92434 17.94541 0 ft 353 kts 170°
2026-04-25 14:52 39.90042 17.95207 0 ft 351 kts 174°
2026-04-25 14:52 39.87660 17.95688 0 ft 350 kts 177°
2026-04-25 14:52 39.85244 17.96053 0 ft 349 kts 179°
2026-04-25 14:52 39.83641 17.96243 0 ft 349 kts 180°
2026-04-25 14:53 39.80405 17.96540 0 ft 347 kts 181°
2026-04-25 14:53 39.77997 17.96706 0 ft 347 kts 182°
2026-04-25 14:53 39.75591 17.96838 0 ft 347 kts 182°
2026-04-25 14:53 39.73176 17.96924 0 ft 346 kts 186°
2026-04-25 14:54 39.70838 17.96702 0 ft 343 kts 191°
2026-04-25 14:54 39.68591 17.96315 0 ft 341 kts 193°
2026-04-25 14:54 39.66302 17.95834 0 ft 341 kts 194°
2026-04-25 14:54 39.64087 17.95318 0 ft 341 kts 195°
2026-04-25 14:55 39.61828 17.94756 0 ft 340 kts 195°
2026-04-25 14:55 39.59532 17.94160 0 ft 340 kts 196°
2026-04-25 14:55 39.57222 17.93542 0 ft 340 kts 196°
2026-04-25 14:55 39.54913 17.92912 0 ft 340 kts 197°
2026-04-25 14:56 39.52607 17.92273 0 ft 340 kts 197°
2026-04-25 14:56 39.50323 17.91634 0 ft 340 kts 197°
2026-04-25 14:56 39.48079 17.91003 0 ft 340 kts 197°
2026-04-25 14:56 39.45794 17.90357 0 ft 339 kts 197°
2026-04-25 14:57 39.43483 17.89701 0 ft 340 kts 197°
2026-04-25 14:57 39.41201 17.89052 0 ft 340 kts 197°
2026-04-25 14:57 39.38871 17.88387 0 ft 351 kts 197°
2026-04-25 14:57 39.36429 17.87682 0 ft 371 kts 197°
2026-04-25 14:58 39.33838 17.86933 0 ft 389 kts 197°
2026-04-25 14:58 39.31143 17.86157 0 ft 400 kts 196°
2026-04-25 14:58 39.28447 17.85391 0 ft 399 kts 196°
2026-04-25 14:58 39.25735 17.84626 0 ft 399 kts 196°
2026-04-25 14:59 39.23015 17.83861 0 ft 400 kts 196°
2026-04-25 14:59 39.20332 17.83106 0 ft 400 kts 196°
2026-04-25 14:59 39.17580 17.82330 0 ft 400 kts 196°
2026-04-25 14:59 39.14928 17.81446 0 ft 395 kts 206°
2026-04-25 15:00 39.13368 17.80281 0 ft 388 kts 221°
2026-04-25 15:00 39.11284 17.76603 0 ft 381 kts 246°
2026-04-25 15:00 39.10225 17.73485 0 ft 380 kts 249°
2026-04-25 15:00 39.09270 17.70304 0 ft 380 kts 251°
2026-04-25 15:01 39.08676 17.68203 0 ft 380 kts 252°
2026-04-25 15:01 39.07538 17.63989 0 ft 380 kts 252°
2026-04-25 15:01 39.06978 17.61852 0 ft 380 kts 253°
2026-04-25 15:01 39.05941 17.57823 0 ft 379 kts 253°
2026-04-25 15:02 39.05393 17.55668 0 ft 380 kts 253°
2026-04-25 15:02 39.04591 17.52488 0 ft 380 kts 253°
2026-04-25 15:02 39.03790 17.49292 0 ft 380 kts 253°
2026-04-25 15:02 39.02991 17.46088 0 ft 379 kts 253°
2026-04-25 15:03 39.02190 17.42865 0 ft 379 kts 253°
2026-04-25 15:03 39.01404 17.39701 0 ft 379 kts 253°
2026-04-25 15:03 39.00630 17.36575 0 ft 380 kts 253°
2026-04-25 15:03 38.99837 17.33375 0 ft 380 kts 253°
2026-04-25 15:04 38.99045 17.30178 0 ft 379 kts 253°
2026-04-25 15:04 38.98575 17.28280 0 ft 379 kts 253°
2026-04-25 15:06 38.97121 17.22416 0 ft 379 kts 253°
2026-04-25 15:06 38.96324 17.19201 0 ft 378 kts 253°
2026-04-25 15:06 38.95543 17.16057 0 ft 379 kts 253°
2026-04-25 15:06 38.94758 17.12898 0 ft 380 kts 253°
2026-04-25 15:07 38.93956 17.09674 0 ft 380 kts 253°
2026-04-25 15:07 38.93154 17.06456 0 ft 379 kts 253°
2026-04-25 15:07 38.92354 17.03249 0 ft 379 kts 253°
2026-04-25 15:07 38.91557 17.00054 0 ft 379 kts 253°
2026-04-25 15:08 38.90763 16.96878 0 ft 379 kts 253°
2026-04-25 15:08 38.90003 16.93837 0 ft 379 kts 253°
2026-04-25 15:08 38.89226 16.90733 0 ft 379 kts 253°
2026-04-25 15:08 38.88444 16.87615 0 ft 379 kts 253°
2026-04-25 15:09 38.87646 16.84439 0 ft 379 kts 253°
2026-04-25 15:09 38.86852 16.81278 0 ft 379 kts 253°
2026-04-25 15:09 38.85282 16.75045 0 ft 379 kts 253°
2026-04-25 15:10 38.84482 16.71878 0 ft 379 kts 253°
2026-04-25 15:10 38.83685 16.68722 0 ft 379 kts 253°
2026-04-25 15:10 38.82070 16.62345 0 ft 379 kts 253°
2026-04-25 15:11 38.81252 16.59120 0 ft 380 kts 253°
2026-04-25 15:11 38.80434 16.55897 0 ft 379 kts 253°
2026-04-25 15:11 38.79615 16.52677 0 ft 379 kts 253°
2026-04-25 15:12 38.78008 16.46376 0 ft 375 kts 253°
2026-04-25 15:12 38.77215 16.43274 0 ft 369 kts 253°
2026-04-25 15:12 38.76265 16.40289 0 ft 372 kts 239°
2026-04-25 15:12 38.75281 16.38598 0 ft 369 kts 233°
2026-04-25 15:13 38.73057 16.35440 0 ft 362 kts 229°
2026-04-25 15:13 38.69452 16.30920 0 ft 364 kts 226°
2026-04-25 15:13 38.67616 16.28763 0 ft 365 kts 225°
2026-04-25 15:14 38.65769 16.26650 0 ft 365 kts 224°
2026-04-25 15:14 38.63877 16.24530 0 ft 365 kts 224°
2026-04-25 15:14 38.61979 16.22433 0 ft 364 kts 224°
2026-04-25 15:14 38.60047 16.20319 0 ft 365 kts 224°
2026-04-25 15:15 38.58112 16.18221 0 ft 365 kts 223°
2026-04-25 15:15 38.56178 16.16135 0 ft 365 kts 223°
2026-04-25 15:15 38.54224 16.14036 0 ft 365 kts 223°
2026-04-25 15:15 38.52294 16.11965 0 ft 365 kts 223°
2026-04-25 15:16 38.50375 16.09907 0 ft 365 kts 223°
2026-04-25 15:16 38.48425 16.07821 0 ft 365 kts 223°
2026-04-25 15:16 38.44541 16.03680 0 ft 365 kts 223°
2026-04-25 15:17 38.40658 15.99542 0 ft 365 kts 223°
2026-04-25 15:17 38.38720 15.97476 0 ft 365 kts 223°
2026-04-25 15:17 38.36774 15.95400 0 ft 365 kts 223°
2026-04-25 15:18 38.35221 15.93743 0 ft 365 kts 223°
2026-04-25 15:18 38.31370 15.89646 0 ft 365 kts 223°
2026-04-25 15:18 38.29433 15.87588 0 ft 364 kts 223°
2026-04-25 15:19 38.27496 15.85529 0 ft 365 kts 223°
2026-04-25 15:19 38.26200 15.84153 0 ft 365 kts 223°
2026-04-25 15:19 38.23588 15.81384 0 ft 366 kts 223°
2026-04-25 15:19 38.21645 15.79326 0 ft 365 kts 223°
2026-04-25 15:20 38.19698 15.77265 0 ft 366 kts 223°
2026-04-25 15:20 38.17733 15.75189 0 ft 365 kts 223°
2026-04-25 15:20 38.15789 15.73138 0 ft 366 kts 223°
2026-04-25 15:20 38.13873 15.71108 0 ft 364 kts 223°
2026-04-25 15:21 38.11898 15.69079 0 ft 365 kts 221°
2026-04-25 15:21 38.09863 15.67158 0 ft 366 kts 219°
2026-04-25 15:21 38.07781 15.65298 0 ft 367 kts 218°
2026-04-25 15:21 38.05528 15.63767 0 ft 374 kts 201°
2026-04-25 15:22 38.03005 15.63441 0 ft 383 kts 184°
2026-04-25 15:22 38.00408 15.62984 0 ft 372 kts 204°
2026-04-25 15:22 37.98358 15.61245 0 ft 341 kts 231°
2026-04-25 15:22 37.97061 15.58944 0 ft 313 kts 240°
2026-04-25 15:23 37.95977 15.56705 0 ft 292 kts 241°
2026-04-25 15:23 37.94992 15.54673 0 ft 274 kts 240°
2026-04-25 15:23 37.93999 15.52746 0 ft 259 kts 239°
2026-04-25 15:23 37.92975 15.50934 0 ft 245 kts 236°
2026-04-25 15:24 37.91964 15.49304 0 ft 233 kts 234°
2026-04-25 15:24 37.90938 15.47782 0 ft 225 kts 232°
2026-04-25 15:24 37.89904 15.46353 0 ft 223 kts 231°
2026-04-25 15:24 37.89186 15.45408 0 ft 222 kts 230°
2026-04-25 15:25 37.87766 15.43619 0 ft 221 kts 229°
2026-04-25 15:25 37.86670 15.42290 0 ft 220 kts 228°
2026-04-25 15:25 37.85580 15.41007 0 ft 219 kts 223°
2026-04-25 15:25 37.84214 15.40322 0 ft 234 kts 184°
2026-04-25 15:26 37.82647 15.40986 0 ft 251 kts 144°
2026-04-25 15:26 37.81662 15.42778 0 ft 260 kts 105°
2026-04-25 15:26 37.81638 15.45009 0 ft 259 kts 68°
2026-04-25 15:26 37.82552 15.46907 0 ft 248 kts 45°
2026-04-25 15:27 37.83580 15.48491 0 ft 227 kts 49°
2026-04-25 15:27 37.84385 15.50105 0 ft 208 kts 48°
2026-04-25 15:27 37.86390 15.52082 0 ft 195 kts 38°
2026-04-25 15:28 37.87302 15.53278 0 ft 192 kts 40°
2026-04-25 15:28 37.88266 15.54385 0 ft 187 kts 31°
2026-04-25 15:28 37.89068 15.55240 0 ft 186 kts 35°
2026-04-25 15:28 37.89905 15.56383 0 ft 186 kts 43°
2026-04-25 15:29 37.90629 15.57477 0 ft 176 kts 40°
2026-04-25 15:29 37.91420 15.58467 0 ft 177 kts 36°
2026-04-25 15:29 37.92239 15.59431 0 ft 177 kts 35°
2026-04-25 15:29 37.93025 15.60349 0 ft 187 kts 35°
2026-04-25 15:30 37.93973 15.61296 0 ft 201 kts 27°
2026-04-25 15:30 37.95185 15.62089 0 ft 205 kts 10°
2026-04-25 15:30 37.96473 15.62621 0 ft 203 kts 13°
2026-04-25 15:30 37.97546 15.63215 0 ft 182 kts 15°
2026-04-25 15:31 37.98642 15.63725 0 ft 173 kts
2026-04-25 15:31 37.99746 15.64109 0 ft 176 kts
2026-04-25 15:31 38.00793 15.64511 0 ft 150 kts 12°
2026-04-25 15:31 38.01602 15.65056 0 ft 145 kts 20°
2026-04-25 15:32 38.02360 15.65593 0 ft 139 kts 14°
2026-04-25 15:32 38.03182 15.66041 0 ft 138 kts 11°
2026-04-25 15:32 38.04022 15.66432 0 ft 137 kts
2026-04-25 15:33 38.05384 15.66199 0 ft 111 kts 328°
2026-04-25 15:33 38.05942 15.65912 0 ft 110 kts 328°
2026-04-25 15:33 38.06504 15.65588 0 ft 99 kts 331°
2026-04-25 15:33 38.06779 15.65394 0 ft 12 kts 329°
2026-04-25 15:34 38.06808 15.65372 0 ft 3 kts 329°
2026-04-25 15:34 38.06812 15.65369 0 ft 0 kts 329°
2026-04-25 15:34 38.07350 15.64967 0 ft 0 kts 329°
2026-04-25 15:35 38.07511 15.64914 0 ft 104 kts 153°
2026-04-25 15:35 38.06859 15.65340 0 ft 157 kts 157°
2026-04-25 15:35 38.06075 15.65841 0 ft 187 kts 159°
2026-04-25 15:36 38.04023 15.65792 0 ft 179 kts 232°
2026-04-25 15:36 38.03539 15.64632 0 ft 183 kts 255°
2026-04-25 15:36 38.03370 15.63777 0 ft 171 kts 259°
2026-04-25 15:37 38.03154 15.62517 0 ft 142 kts 258°
2026-04-25 15:37 38.02916 15.61365 0 ft 142 kts 257°
2026-04-25 15:37 38.02649 15.60125 0 ft 157 kts 257°
2026-04-25 15:37 38.02393 15.58821 0 ft 160 kts 274°
2026-04-25 15:38 38.02809 15.57531 0 ft 180 kts 308°
2026-04-25 15:38 38.03782 15.56555 0 ft 197 kts 323°
2026-04-25 15:38 38.04840 15.55858 0 ft 197 kts 328°
2026-04-25 15:38 38.05901 15.55225 0 ft 193 kts 327°
2026-04-25 15:39 38.07002 15.54552 0 ft 192 kts 327°
2026-04-25 15:39 38.08092 15.53883 0 ft 191 kts 327°
2026-04-25 15:39 38.09120 15.52998 0 ft 180 kts 303°
2026-04-25 15:39 38.09953 15.51830 0 ft 186 kts 311°
2026-04-25 15:40 38.10992 15.50840 0 ft 194 kts 324°
2026-04-25 15:40 38.11395 15.50570 0 ft 196 kts 327°
2026-04-25 15:40 38.13428 15.49635 0 ft 198 kts 334°
2026-04-25 15:40 38.14692 15.49362 0 ft 219 kts 13°
2026-04-25 15:41 38.15856 15.50581 0 ft 234 kts 68°
2026-04-25 15:41 38.15898 15.52564 0 ft 235 kts 122°
2026-04-25 15:41 38.14854 15.54033 0 ft 223 kts 147°
2026-04-25 15:41 38.13672 15.55283 0 ft 236 kts 149°
2026-04-25 15:42 38.12264 15.56400 0 ft 266 kts 160°
2026-04-25 15:42 38.10566 15.57221 0 ft 264 kts 169°
2026-04-25 15:42 38.08806 15.57510 0 ft 256 kts 198°
2026-04-25 15:42 38.07308 15.56458 0 ft 242 kts 228°
2026-04-25 15:43 38.06423 15.54857 0 ft 207 kts 259°
2026-04-25 15:43 38.06391 15.53241 0 ft 161 kts 276°
2026-04-25 15:43 38.06562 15.51831 0 ft 172 kts 255°
2026-04-25 15:43 38.05703 15.50572 0 ft 237 kts 204°
2026-04-25 15:44 38.03979 15.50597 0 ft 289 kts 163°
2026-04-25 15:44 38.02524 15.52181 0 ft 275 kts 112°
2026-04-25 15:44 38.02421 15.54220 0 ft 204 kts 63°
2026-04-25 15:44 38.02877 15.55838 0 ft 209 kts 75°
2026-04-25 15:45 38.02952 15.57851 0 ft 242 kts 102°
2026-04-25 15:45 38.02501 15.59770 0 ft 214 kts 120°
2026-04-25 15:45 38.01786 15.61319 0 ft 203 kts 119°
2026-04-25 15:45 38.01591 15.61890 0 ft 215 kts 102°
2026-04-25 15:46 38.01843 15.64535 0 ft 238 kts 70°
2026-04-25 15:46 38.02324 15.66282 0 ft 194 kts 73°
2026-04-25 15:46 38.02503 15.68022 0 ft 224 kts 90°
2026-04-25 15:46 38.02532 15.69981 0 ft 220 kts 89°
2026-04-25 15:47 38.02627 15.71763 0 ft 214 kts 63°
2026-04-25 15:47 38.03518 15.73177 0 ft 239 kts 25°
2026-04-25 15:47 38.04819 15.73765 0 ft 179 kts 345°
2026-04-25 15:47 38.05875 15.73309 0 ft 168 kts 307°
2026-04-25 15:48 38.06344 15.71835 0 ft 219 kts 265°
2026-04-25 15:48 38.06048 15.69941 0 ft 239 kts 267°
2026-04-25 15:48 38.06377 15.67844 0 ft 256 kts 297°
2026-04-25 15:48 38.07676 15.66400 0 ft 271 kts 332°
2026-04-25 15:49 38.09347 15.65904 0 ft 255 kts 352°
2026-04-25 15:49 38.10859 15.66278 0 ft 200 kts 13°
2026-04-25 15:49 38.12047 15.66869 0 ft 189 kts 12°
2026-04-25 15:49 38.13227 15.67412 0 ft 205 kts 11°
2026-04-25 15:50 38.14524 15.67302 0 ft 196 kts 314°
2026-04-25 15:50 38.15062 15.65902 0 ft 181 kts 257°
2026-04-25 15:50 38.14590 15.64554 0 ft 152 kts 247°
2026-04-25 15:50 38.14176 15.63409 0 ft 151 kts 254°
2026-04-25 15:51 38.13737 15.62005 0 ft 188 kts 245°
2026-04-25 15:51 38.13306 15.61031 0 ft 196 kts 242°
2026-04-25 15:51 38.12312 15.59101 0 ft 205 kts 239°
2026-04-25 15:51 38.11507 15.57578 0 ft 214 kts 240°
2026-04-25 15:52 38.10656 15.55960 0 ft 221 kts 238°
2026-04-25 15:52 38.09541 15.54623 0 ft 233 kts 214°
2026-04-25 15:52 38.08029 15.54084 0 ft 233 kts 191°
2026-04-25 15:52 38.06486 15.54134 0 ft 224 kts 180°
2026-04-25 15:53 38.05023 15.54460 0 ft 206 kts 176°
2026-04-25 15:53 38.03701 15.54809 0 ft 184 kts 177°
2026-04-25 15:53 38.02482 15.55317 0 ft 206 kts 143°
2026-04-25 15:53 38.01928 15.57015 0 ft 212 kts 79°
2026-04-25 15:54 38.02294 15.58525 0 ft 164 kts 62°
2026-04-25 15:54 38.02711 15.60056 0 ft 211 kts 83°
2026-04-25 15:54 38.02559 15.62075 0 ft 245 kts 102°
2026-04-25 15:54 38.02640 15.64182 0 ft 232 kts 65°
2026-04-25 15:55 38.03630 15.65507 0 ft 197 kts 24°
2026-04-25 15:55 38.04849 15.66211 0 ft 193 kts
2026-04-25 15:55 38.06012 15.65921 0 ft 183 kts 330°
2026-04-25 15:55 38.07087 15.65226 0 ft 166 kts 321°
2026-04-25 15:56 38.07619 15.64206 0 ft 145 kts 278°
2026-04-25 15:56 38.07295 15.62679 0 ft 226 kts 241°
2026-04-25 15:56 38.06244 15.61176 0 ft 211 kts 227°
2026-04-25 15:56 38.05252 15.60110 0 ft 173 kts 225°
2026-04-25 15:57 38.04428 15.59245 0 ft 170 kts 226°
2026-04-25 15:57 38.03530 15.58303 0 ft 192 kts 224°
2026-04-25 15:57 38.02480 15.57439 0 ft 205 kts 214°
2026-04-25 15:57 38.01210 15.56806 0 ft 198 kts 201°
2026-04-25 15:58 38.00056 15.56681 0 ft 180 kts 196°
2026-04-25 15:58 37.98962 15.56205 0 ft 180 kts 218°
2026-04-25 15:58 37.98023 15.55278 0 ft 188 kts 228°
2026-04-25 15:58 37.97080 15.54140 0 ft 194 kts 229°
2026-04-25 15:59 37.96145 15.53032 0 ft 197 kts 226°
2026-04-25 15:59 37.95062 15.52098 0 ft 197 kts 213°
2026-04-25 15:59 37.93844 15.51578 0 ft 190 kts 200°
2026-04-25 15:59 37.92644 15.51408 0 ft 177 kts 190°
2026-04-25 16:00 37.91486 15.51871 0 ft 195 kts 145°
2026-04-25 16:00 37.91177 15.52313 0 ft 202 kts 128°
2026-04-25 16:00 37.90939 15.55393 0 ft 257 kts 75°
2026-04-25 16:00 37.91415 15.57017 0 ft 234 kts 59°
2026-04-25 16:01 37.92119 15.58348 0 ft 196 kts 46°
2026-04-25 16:01 37.92938 15.59606 0 ft 193 kts 43°
2026-04-25 16:01 37.93794 15.60959 0 ft 202 kts 45°
2026-04-25 16:01 37.94772 15.62030 0 ft 194 kts 21°
2026-04-25 16:02 37.95880 15.62640 0 ft 201 kts 11°
2026-04-25 16:02 37.96989 15.63058 0 ft 193 kts
2026-04-25 16:02 37.98167 15.63483 0 ft 188 kts 13°
2026-04-25 16:02 37.99270 15.64121 0 ft 181 kts 14°
2026-04-25 16:03 38.00357 15.64591 0 ft 164 kts
2026-04-25 16:03 38.01355 15.64964 0 ft 154 kts
2026-04-25 16:03 38.02227 15.65492 0 ft 155 kts 20°
2026-04-25 16:03 38.03082 15.66170 0 ft 143 kts 21°
2026-04-25 16:04 38.03869 15.66474 0 ft 125 kts 351°
2026-04-25 16:04 38.04638 15.66427 0 ft 116 kts 335°
2026-04-25 16:04 38.05311 15.66181 0 ft 122 kts 333°
2026-04-25 16:04 38.05886 15.65933 0 ft 122 kts 328°
2026-04-25 16:05 38.06461 15.65591 0 ft 117 kts 324°
2026-04-25 16:05 38.07028 15.65220 0 ft 89 kts 332°
2026-04-25 16:05 38.07365 15.65002 0 ft 9 kts 358°
2026-04-25 16:06 38.07391 15.65015 0 ft 2 kts 52°
2026-04-25 16:06 38.07396 15.65027 0 ft 2 kts 63°
2026-04-25 16:06 38.07398 15.65033 0 ft 3 kts 63°
2026-04-25 16:06 38.07404 15.65047 0 ft 0 kts 63°
2026-04-25 16:07 38.07404 15.65048 0 ft 0 kts 63°
2026-04-25 16:08 38.07406 15.65054 0 ft 1 kts 62°
2026-04-25 16:08 38.07419 15.65100 0 ft 12 kts 87°
2026-04-25 16:08 38.07395 15.65179 0 ft 9 kts 120°
2026-04-25 16:09 38.07375 15.65239 0 ft 7 kts 102°
2026-04-25 16:09 38.07377 15.65281 0 ft 3 kts 76°
2026-04-25 16:09 38.07378 15.65283 0 ft 0 kts 76°